Year,Month,Day,Hour,Minute,Value (Times are PST for temperature in C)
2020,01,26,00,00,-28.60
2020,01,26,00,01,-28.60
2020,01,26,00,02,-28.50
2020,01,26,00,03,-28.50
2020,01,26,00,04,-28.50
2020,01,26,00,05,-28.40
2020,01,26,00,06,-28.40
2020,01,26,00,07,-28.40
2020,01,26,00,08,-28.30
2020,01,26,00,09,-28.30
2020,01,26,00,10,-28.30
2020,01,26,00,11,-28.30
2020,01,26,00,12,-28.20
2020,01,26,00,13,-28.20
2020,01,26,00,14,-28.20
2020,01,26,00,15,-28.20
2020,01,26,00,16,-28.20
2020,01,26,00,17,-28.20
2020,01,26,00,18,-28.30
2020,01,26,00,19,-28.30
2020,01,26,00,20,-28.30
2020,01,26,00,21,-28.30
2020,01,26,00,22,-28.40
2020,01,26,00,23,-28.40
2020,01,26,00,24,-28.40
2020,01,26,00,25,-28.40
2020,01,26,00,26,-28.40
2020,01,26,00,27,-28.40
2020,01,26,00,28,-28.40
2020,01,26,00,29,-28.40
2020,01,26,00,30,-28.40
2020,01,26,00,31,-28.40
2020,01,26,00,32,-28.40
2020,01,26,00,33,-28.40
2020,01,26,00,34,-28.40
2020,01,26,00,35,-28.40
2020,01,26,00,36,-28.40
2020,01,26,00,37,-28.40
2020,01,26,00,38,-28.40
2020,01,26,00,39,-28.30
2020,01,26,00,40,-28.30
2020,01,26,00,41,-28.30
2020,01,26,00,42,-28.30
2020,01,26,00,43,-28.30
2020,01,26,00,44,-28.20
2020,01,26,00,45,-28.20
2020,01,26,00,46,-28.20
2020,01,26,00,47,-28.20
2020,01,26,00,48,-28.20
2020,01,26,00,49,-28.20
2020,01,26,00,50,-28.20
2020,01,26,00,51,-28.20
2020,01,26,00,52,-28.20
2020,01,26,00,53,-28.20
2020,01,26,00,54,-28.20
2020,01,26,00,55,-28.20
2020,01,26,00,56,-28.10
2020,01,26,00,57,-28.10
2020,01,26,00,58,-28.10
2020,01,26,00,59,-28.10
2020,01,26,01,00,-28.10
2020,01,26,01,01,-28.10
2020,01,26,01,02,-28.10
2020,01,26,01,03,-28.10
2020,01,26,01,04,-28.10
2020,01,26,01,05,-28.00
2020,01,26,01,06,-28.00
2020,01,26,01,07,-28.00
2020,01,26,01,08,-28.00
2020,01,26,01,09,-28.00
2020,01,26,01,10,-27.90
2020,01,26,01,11,-27.90
2020,01,26,01,12,-27.90
2020,01,26,01,13,-27.90
2020,01,26,01,14,-27.90
2020,01,26,01,15,-27.80
2020,01,26,01,16,-27.80
2020,01,26,01,17,-27.80
2020,01,26,01,18,-27.80
2020,01,26,01,19,-27.80
2020,01,26,01,20,-27.70
2020,01,26,01,21,-27.70
2020,01,26,01,22,-27.70
2020,01,26,01,23,-27.60
2020,01,26,01,24,-27.60
2020,01,26,01,25,-27.50
2020,01,26,01,26,-27.50
2020,01,26,01,27,-27.50
2020,01,26,01,28,-27.50
2020,01,26,01,29,-27.50
2020,01,26,01,30,-27.50
2020,01,26,01,31,-27.50
2020,01,26,01,32,-27.50
2020,01,26,01,33,-27.50
2020,01,26,01,34,-27.50
2020,01,26,01,35,-27.40
2020,01,26,01,36,-27.40
2020,01,26,01,37,-27.40
2020,01,26,01,38,-27.40
2020,01,26,01,39,-27.40
2020,01,26,01,40,-27.40
2020,01,26,01,41,-27.40
2020,01,26,01,42,-27.40
2020,01,26,01,43,-27.30
2020,01,26,01,44,-27.30
2020,01,26,01,45,-27.30
2020,01,26,01,46,-27.20
2020,01,26,01,47,-27.20
2020,01,26,01,48,-27.20
2020,01,26,01,49,-27.20
2020,01,26,01,50,-27.20
2020,01,26,01,51,-27.10
2020,01,26,01,52,-27.10
2020,01,26,01,53,-27.10
2020,01,26,01,54,-27.10
2020,01,26,01,55,-27.10
2020,01,26,01,56,-27.10
2020,01,26,01,57,-27.10
2020,01,26,01,58,-27.10
2020,01,26,01,59,-27.00
2020,01,26,02,00,-27.00
2020,01,26,02,01,-26.90
2020,01,26,02,02,-26.90
2020,01,26,02,03,-26.90
2020,01,26,02,04,-26.90
2020,01,26,02,05,-26.80
2020,01,26,02,06,-26.80
2020,01,26,02,07,-26.80
2020,01,26,02,08,-26.70
2020,01,26,02,09,-26.70
2020,01,26,02,10,-26.60
2020,01,26,02,11,-26.60
2020,01,26,02,12,-26.60
2020,01,26,02,13,-26.50
2020,01,26,02,14,-26.50
2020,01,26,02,15,-26.40
2020,01,26,02,16,-26.40
2020,01,26,02,17,-26.40
2020,01,26,02,18,-26.30
2020,01,26,02,19,-26.30
2020,01,26,02,20,-26.20
2020,01,26,02,21,-26.20
2020,01,26,02,22,-26.10
2020,01,26,02,23,-26.10
2020,01,26,02,24,-26.10
2020,01,26,02,25,-26.00
2020,01,26,02,26,-26.00
2020,01,26,02,27,-26.00
2020,01,26,02,28,-26.00
2020,01,26,02,29,-26.00
2020,01,26,02,30,-26.00
2020,01,26,02,31,-26.00
2020,01,26,02,32,-25.90
2020,01,26,02,33,-25.90
2020,01,26,02,34,-25.90
2020,01,26,02,35,-25.90
2020,01,26,02,36,-25.90
2020,01,26,02,37,-25.90
2020,01,26,02,38,-25.90
2020,01,26,02,39,-25.90
2020,01,26,02,40,-25.90
2020,01,26,02,41,-25.90
2020,01,26,02,42,-25.90
2020,01,26,02,43,-25.90
2020,01,26,02,44,-25.80
2020,01,26,02,45,-25.80
2020,01,26,02,46,-25.80
2020,01,26,02,47,-25.80
2020,01,26,02,48,-25.80
2020,01,26,02,49,-25.80
2020,01,26,02,50,-25.80
2020,01,26,02,51,-25.80
2020,01,26,02,52,-25.70
2020,01,26,02,53,-25.70
2020,01,26,02,54,-25.70
2020,01,26,02,55,-25.70
2020,01,26,02,56,-25.70
2020,01,26,02,57,-25.70
2020,01,26,02,58,-25.60
2020,01,26,02,59,-25.60
2020,01,26,03,00,-25.60
2020,01,26,03,01,-25.60
2020,01,26,03,02,-25.60
2020,01,26,03,03,-25.60
2020,01,26,03,04,-25.60
2020,01,26,03,05,-25.60
2020,01,26,03,06,-25.50
2020,01,26,03,07,-25.40
2020,01,26,03,08,-25.30
2020,01,26,03,09,-25.20
2020,01,26,03,10,-25.10
2020,01,26,03,11,-25.00
2020,01,26,03,12,-24.90
2020,01,26,03,13,-24.80
2020,01,26,03,14,-24.80
2020,01,26,03,15,-24.80
2020,01,26,03,16,-24.70
2020,01,26,03,17,-24.70
2020,01,26,03,18,-24.70
2020,01,26,03,19,-24.70
2020,01,26,03,20,-24.70
2020,01,26,03,21,-24.70
2020,01,26,03,22,-24.60
2020,01,26,03,23,-24.60
2020,01,26,03,24,-24.60
2020,01,26,03,25,-24.60
2020,01,26,03,26,-24.60
2020,01,26,03,27,-24.60
2020,01,26,03,28,-24.60
2020,01,26,03,29,-24.60
2020,01,26,03,30,-24.60
2020,01,26,03,31,-24.60
2020,01,26,03,32,-24.60
2020,01,26,03,33,-24.60
2020,01,26,03,34,-24.60
2020,01,26,03,35,-24.60
2020,01,26,03,36,-24.60
2020,01,26,03,37,-24.50
2020,01,26,03,38,-24.50
2020,01,26,03,39,-24.50
2020,01,26,03,40,-24.50
2020,01,26,03,41,-24.40
2020,01,26,03,42,-24.50
2020,01,26,03,43,-24.50
2020,01,26,03,44,-24.60
2020,01,26,03,45,-24.70
2020,01,26,03,46,-24.80
2020,01,26,03,47,-24.90
2020,01,26,03,48,-24.90
2020,01,26,03,49,-25.00
2020,01,26,03,50,-25.00
2020,01,26,03,51,-25.00
2020,01,26,03,52,-24.90
2020,01,26,03,53,-24.80
2020,01,26,03,54,-24.70
2020,01,26,03,55,-24.60
2020,01,26,03,56,-24.50
2020,01,26,03,57,-24.40
2020,01,26,03,58,-24.30
2020,01,26,03,59,-24.30
2020,01,26,04,00,-24.30
2020,01,26,04,01,-24.20
2020,01,26,04,02,-24.20
2020,01,26,04,03,-24.20
2020,01,26,04,04,-24.20
2020,01,26,04,05,-24.20
2020,01,26,04,06,-24.10
2020,01,26,04,07,-24.10
2020,01,26,04,08,-24.10
2020,01,26,04,09,-24.10
2020,01,26,04,10,-24.10
2020,01,26,04,11,-24.10
2020,01,26,04,12,-24.10
2020,01,26,04,13,-24.10
2020,01,26,04,14,-24.10
2020,01,26,04,15,-24.10
2020,01,26,04,16,-24.10
2020,01,26,04,17,-24.10
2020,01,26,04,18,-24.10
2020,01,26,04,19,-24.10
2020,01,26,04,20,-24.10
2020,01,26,04,21,-24.10
2020,01,26,04,22,-24.10
2020,01,26,04,23,-24.10
2020,01,26,04,24,-24.10
2020,01,26,04,25,-24.10
2020,01,26,04,26,-24.10
2020,01,26,04,27,-24.10
2020,01,26,04,28,-24.10
2020,01,26,04,29,-24.00
2020,01,26,04,30,-24.00
2020,01,26,04,31,-24.00
2020,01,26,04,32,-24.00
2020,01,26,04,33,-24.00
2020,01,26,04,34,-24.00
2020,01,26,04,35,-24.00
2020,01,26,04,36,-24.00
2020,01,26,04,37,-24.00
2020,01,26,04,38,-24.00
2020,01,26,04,39,-23.90
2020,01,26,04,40,-24.00
2020,01,26,04,41,-24.00
2020,01,26,04,42,-24.00
2020,01,26,04,43,-24.00
2020,01,26,04,44,-24.00
2020,01,26,04,45,-24.00
2020,01,26,04,46,-24.10
2020,01,26,04,47,-24.20
2020,01,26,04,48,-24.20
2020,01,26,04,49,-24.30
2020,01,26,04,50,-24.30
2020,01,26,04,51,-24.40
2020,01,26,04,52,-24.40
2020,01,26,04,53,-24.50
2020,01,26,04,54,-24.50
2020,01,26,04,55,-24.50
2020,01,26,04,56,-24.50
2020,01,26,04,57,-24.50
2020,01,26,04,58,-24.50
2020,01,26,04,59,-24.50
2020,01,26,05,00,-24.50
2020,01,26,05,01,-24.50
2020,01,26,05,02,-24.50
2020,01,26,05,03,-24.50
2020,01,26,05,04,-24.50
2020,01,26,05,05,-24.50
2020,01,26,05,06,-24.50
2020,01,26,05,07,-24.50
2020,01,26,05,08,-24.50
2020,01,26,05,09,-24.50
2020,01,26,05,10,-24.40
2020,01,26,05,11,-24.40
2020,01,26,05,12,-24.40
2020,01,26,05,13,-24.40
2020,01,26,05,14,-24.40
2020,01,26,05,15,-24.30
2020,01,26,05,16,-24.30
2020,01,26,05,17,-24.30
2020,01,26,05,18,-24.20
2020,01,26,05,19,-24.20
2020,01,26,05,20,-24.20
2020,01,26,05,21,-24.20
2020,01,26,05,22,-24.20
2020,01,26,05,23,-24.20
2020,01,26,05,24,-24.20
2020,01,26,05,25,-24.20
2020,01,26,05,26,-24.20
2020,01,26,05,27,-24.20
2020,01,26,05,28,-24.20
2020,01,26,05,29,-24.20
2020,01,26,05,30,-24.10
2020,01,26,05,31,-24.10
2020,01,26,05,32,-24.10
2020,01,26,05,33,-24.10
2020,01,26,05,34,-24.10
2020,01,26,05,35,-24.10
2020,01,26,05,36,-24.10
2020,01,26,05,37,-24.10
2020,01,26,05,38,-24.00
2020,01,26,05,39,-24.00
2020,01,26,05,40,-24.00
2020,01,26,05,41,-24.00
2020,01,26,05,42,-24.00
2020,01,26,05,43,-24.00
2020,01,26,05,44,-24.00
2020,01,26,05,45,-23.90
2020,01,26,05,46,-24.00
2020,01,26,05,47,-23.90
2020,01,26,05,48,-23.90
2020,01,26,05,49,-23.90
2020,01,26,05,50,-23.90
2020,01,26,05,51,-23.90
2020,01,26,05,52,-24.00
2020,01,26,05,53,-23.90
2020,01,26,05,54,-24.00
2020,01,26,05,55,-24.00
2020,01,26,05,56,-24.00
2020,01,26,05,57,-24.00
2020,01,26,05,58,-24.00
2020,01,26,05,59,-24.00
2020,01,26,06,00,-24.00
2020,01,26,06,01,-24.00
2020,01,26,06,02,-24.00
2020,01,26,06,03,-24.00
2020,01,26,06,04,-24.00
2020,01,26,06,05,-24.00
2020,01,26,06,06,-23.90
2020,01,26,06,07,-23.90
2020,01,26,06,08,-23.90
2020,01,26,06,09,-23.90
2020,01,26,06,10,-23.90
2020,01,26,06,11,-23.90
2020,01,26,06,12,-23.90
2020,01,26,06,13,-23.90
2020,01,26,06,14,-23.90
2020,01,26,06,15,-23.90
2020,01,26,06,16,-23.90
2020,01,26,06,17,-23.90
2020,01,26,06,18,-23.90
2020,01,26,06,19,-23.90
2020,01,26,06,20,-23.90
2020,01,26,06,21,-23.90
2020,01,26,06,22,-23.80
2020,01,26,06,23,-23.80
2020,01,26,06,24,-23.80
2020,01,26,06,25,-23.80
2020,01,26,06,26,-23.70
2020,01,26,06,27,-23.70
2020,01,26,06,28,-23.70
2020,01,26,06,29,-23.70
2020,01,26,06,30,-23.70
2020,01,26,06,31,-23.60
2020,01,26,06,32,-23.60
2020,01,26,06,33,-23.60
2020,01,26,06,34,-23.60
2020,01,26,06,35,-23.60
2020,01,26,06,36,-23.60
2020,01,26,06,37,-23.50
2020,01,26,06,38,-23.50
2020,01,26,06,39,-23.50
2020,01,26,06,40,-23.50
2020,01,26,06,41,-23.50
2020,01,26,06,42,-23.50
2020,01,26,06,43,-23.50
2020,01,26,06,44,-23.50
2020,01,26,06,45,-23.50
2020,01,26,06,46,-23.50
2020,01,26,06,47,-23.50
2020,01,26,06,48,-23.50
2020,01,26,06,49,-23.50
2020,01,26,06,50,-23.50
2020,01,26,06,51,-23.50
2020,01,26,06,52,-23.50
2020,01,26,06,53,-23.50
2020,01,26,06,54,-23.50
2020,01,26,06,55,-23.40
2020,01,26,06,56,-23.40
2020,01,26,06,57,-23.50
2020,01,26,06,58,-23.50
2020,01,26,06,59,-23.40
2020,01,26,07,00,-23.50
2020,01,26,07,01,-23.40
2020,01,26,07,02,-23.50
2020,01,26,07,03,-23.50
2020,01,26,07,04,-23.50
2020,01,26,07,05,-23.50
2020,01,26,07,06,-23.50
2020,01,26,07,07,-23.50
2020,01,26,07,08,-23.50
2020,01,26,07,09,-23.50
2020,01,26,07,10,-23.50
2020,01,26,07,11,-23.50
2020,01,26,07,12,-23.40
2020,01,26,07,13,-23.40
2020,01,26,07,14,-23.40
2020,01,26,07,15,-23.40
2020,01,26,07,16,-23.40
2020,01,26,07,17,-23.40
2020,01,26,07,18,-23.40
2020,01,26,07,19,-23.40
2020,01,26,07,20,-23.40
2020,01,26,07,21,-23.40
2020,01,26,07,22,-23.40
2020,01,26,07,23,-23.40
2020,01,26,07,24,-23.40
2020,01,26,07,25,-23.40
2020,01,26,07,26,-23.40
2020,01,26,07,27,-23.40
2020,01,26,07,28,-23.40
2020,01,26,07,29,-23.40
2020,01,26,07,30,-23.40
2020,01,26,07,31,-23.40
2020,01,26,07,32,-23.40
2020,01,26,07,33,-23.40
2020,01,26,07,34,-23.40
2020,01,26,07,35,-23.40
2020,01,26,07,36,-23.40
2020,01,26,07,37,-23.40
2020,01,26,07,38,-23.30
2020,01,26,07,39,-23.30
2020,01,26,07,40,-23.30
2020,01,26,07,41,-23.30
2020,01,26,07,42,-23.30
2020,01,26,07,43,-23.30
2020,01,26,07,44,-23.30
2020,01,26,07,45,-23.30
2020,01,26,07,46,-23.30
2020,01,26,07,47,-23.30
2020,01,26,07,48,-23.30
2020,01,26,07,49,-23.30
2020,01,26,07,50,-23.30
2020,01,26,07,51,-23.30
2020,01,26,07,52,-23.30
2020,01,26,07,53,-23.30
2020,01,26,07,54,-23.30
2020,01,26,07,55,-23.30
2020,01,26,07,56,-23.30
2020,01,26,07,57,-23.30
2020,01,26,07,58,-23.30
2020,01,26,07,59,-23.30
2020,01,26,08,00,-23.30
2020,01,26,08,01,-23.30
2020,01,26,08,02,-23.30
2020,01,26,08,03,-23.30
2020,01,26,08,04,-23.30
2020,01,26,08,05,-23.30
2020,01,26,08,06,-23.30
2020,01,26,08,07,-23.30
2020,01,26,08,08,-23.30
2020,01,26,08,09,-23.30
2020,01,26,08,10,-23.30
2020,01,26,08,11,-23.30
2020,01,26,08,12,-23.30
2020,01,26,08,13,-23.30
2020,01,26,08,14,-23.30
2020,01,26,08,15,-23.20
2020,01,26,08,16,-23.20
2020,01,26,08,17,-23.20
2020,01,26,08,18,-23.20
2020,01,26,08,19,-23.20
2020,01,26,08,20,-23.20
2020,01,26,08,21,-23.20
2020,01,26,08,22,-23.20
2020,01,26,08,23,-23.20
2020,01,26,08,24,-23.20
2020,01,26,08,25,-23.20
2020,01,26,08,26,-23.20
2020,01,26,08,27,-23.20
2020,01,26,08,28,-23.20
2020,01,26,08,29,-23.20
2020,01,26,08,30,-23.20
2020,01,26,08,31,-23.20
2020,01,26,08,32,-23.20
2020,01,26,08,33,-23.20
2020,01,26,08,34,-23.20
2020,01,26,08,35,-23.20
2020,01,26,08,36,-23.20
2020,01,26,08,37,-23.20
2020,01,26,08,38,-23.20
2020,01,26,08,39,-23.20
2020,01,26,08,40,-23.20
2020,01,26,08,41,-23.20
2020,01,26,08,42,-23.20
2020,01,26,08,43,-23.20
2020,01,26,08,44,-23.10
2020,01,26,08,45,-23.10
2020,01,26,08,46,-23.10
2020,01,26,08,47,-23.10
2020,01,26,08,48,-23.10
2020,01,26,08,49,-23.10
2020,01,26,08,50,-23.10
2020,01,26,08,51,-23.10
2020,01,26,08,52,-23.10
2020,01,26,08,53,-23.10
2020,01,26,08,54,-23.10
2020,01,26,08,55,-23.10
2020,01,26,08,56,-23.10
2020,01,26,08,57,-23.10
2020,01,26,08,58,-23.10
2020,01,26,08,59,-23.10
2020,01,26,09,00,-23.10
2020,01,26,09,01,-23.10
2020,01,26,09,02,-23.10
2020,01,26,09,03,-23.10
2020,01,26,09,04,-23.10
2020,01,26,09,05,-23.10
2020,01,26,09,06,-23.10
2020,01,26,09,07,-23.10
2020,01,26,09,08,-23.10
2020,01,26,09,09,-23.10
2020,01,26,09,10,-23.10
2020,01,26,09,11,-23.10
2020,01,26,09,12,-23.10
2020,01,26,09,13,-23.00
2020,01,26,09,14,-23.00
2020,01,26,09,15,-23.00
2020,01,26,09,16,-23.00
2020,01,26,09,17,-23.00
2020,01,26,09,18,-23.00
2020,01,26,09,19,-23.00
2020,01,26,09,20,-23.00
2020,01,26,09,21,-23.00
2020,01,26,09,22,-23.00
2020,01,26,09,23,-23.00
2020,01,26,09,24,-23.00
2020,01,26,09,25,-23.00
2020,01,26,09,26,-23.00
2020,01,26,09,27,-23.00
2020,01,26,09,28,-23.00
2020,01,26,09,29,-23.00
2020,01,26,09,30,-23.00
2020,01,26,09,31,-23.00
2020,01,26,09,32,-23.00
2020,01,26,09,33,-23.00
2020,01,26,09,34,-23.00
2020,01,26,09,35,-23.00
2020,01,26,09,36,-23.00
2020,01,26,09,37,-23.00
2020,01,26,09,38,-23.00
2020,01,26,09,39,-23.00
2020,01,26,09,40,-23.00
2020,01,26,09,41,-23.00
2020,01,26,09,42,-23.00
2020,01,26,09,43,-23.00
2020,01,26,09,44,-23.00
2020,01,26,09,45,-23.00
2020,01,26,09,46,-23.00
2020,01,26,09,47,-23.00
2020,01,26,09,48,-23.00
2020,01,26,09,49,-23.00
2020,01,26,09,50,-23.00
2020,01,26,09,51,-23.00
2020,01,26,09,52,-23.00
2020,01,26,09,53,-23.00
2020,01,26,09,54,-23.00
2020,01,26,09,55,-23.00
2020,01,26,09,56,-23.00
2020,01,26,09,57,-23.00
2020,01,26,09,58,-23.10
2020,01,26,09,59,-23.10
2020,01,26,10,00,-23.10
2020,01,26,10,01,-23.00
2020,01,26,10,02,-23.00
2020,01,26,10,03,-23.00
2020,01,26,10,04,-23.00
2020,01,26,10,05,-23.10
2020,01,26,10,06,-23.00
2020,01,26,10,07,-23.10
2020,01,26,10,08,-23.10
2020,01,26,10,09,-23.10
2020,01,26,10,10,-23.10
2020,01,26,10,11,-23.10
2020,01,26,10,12,-23.10
2020,01,26,10,13,-23.10
2020,01,26,10,14,-23.10
2020,01,26,10,15,-23.10
2020,01,26,10,16,-23.10
2020,01,26,10,17,-23.10
2020,01,26,10,18,-23.10
2020,01,26,10,19,-23.10
2020,01,26,10,20,-23.10
2020,01,26,10,21,-23.10
2020,01,26,10,22,-23.00
2020,01,26,10,23,-23.00
2020,01,26,10,24,-23.00
2020,01,26,10,25,-23.00
2020,01,26,10,26,-23.00
2020,01,26,10,27,-23.00
2020,01,26,10,28,-23.00
2020,01,26,10,29,-23.00
2020,01,26,10,30,-23.00
2020,01,26,10,31,-23.00
2020,01,26,10,32,-23.00
2020,01,26,10,33,-23.00
2020,01,26,10,34,-23.00
2020,01,26,10,35,-22.90
2020,01,26,10,36,-22.90
2020,01,26,10,37,-22.90
2020,01,26,10,38,-22.90
2020,01,26,10,39,-22.90
2020,01,26,10,40,-22.90
2020,01,26,10,41,-22.90
2020,01,26,10,42,-22.90
2020,01,26,10,43,-22.90
2020,01,26,10,44,-22.90
2020,01,26,10,45,-22.90
2020,01,26,10,46,-22.90
2020,01,26,10,47,-22.90
2020,01,26,10,48,-22.90
2020,01,26,10,49,-22.90
2020,01,26,10,50,-22.90
2020,01,26,10,51,-22.90
2020,01,26,10,52,-22.90
2020,01,26,10,53,-22.90
2020,01,26,10,54,-22.90
2020,01,26,10,55,-22.90
2020,01,26,10,56,-22.90
2020,01,26,10,57,-22.80
2020,01,26,10,58,-22.80
2020,01,26,10,59,-22.80
2020,01,26,11,00,-22.80
2020,01,26,11,01,-22.80
2020,01,26,11,02,-22.80
2020,01,26,11,03,-22.80
2020,01,26,11,04,-22.80
2020,01,26,11,05,-22.80
2020,01,26,11,06,-22.80
2020,01,26,11,07,-22.80
2020,01,26,11,08,-22.80
2020,01,26,11,09,-22.80
2020,01,26,11,10,-22.80
2020,01,26,11,11,-22.80
2020,01,26,11,12,-22.80
2020,01,26,11,13,-22.80
2020,01,26,11,14,-22.70
2020,01,26,11,15,-22.70
2020,01,26,11,16,-22.70
2020,01,26,11,17,-22.70
2020,01,26,11,18,-22.70
2020,01,26,11,19,-22.70
2020,01,26,11,20,-22.70
2020,01,26,11,21,-22.70
2020,01,26,11,22,-22.70
2020,01,26,11,23,-22.70
2020,01,26,11,24,-22.70
2020,01,26,11,25,-22.70
2020,01,26,11,26,-22.70
2020,01,26,11,27,-22.70
2020,01,26,11,28,-22.70
2020,01,26,11,29,-22.70
2020,01,26,11,30,-22.70
2020,01,26,11,31,-22.70
2020,01,26,11,32,-22.70
2020,01,26,11,33,-22.70
2020,01,26,11,34,-22.70
2020,01,26,11,35,-22.70
2020,01,26,11,36,-22.70
2020,01,26,11,37,-22.70
2020,01,26,11,38,-22.70
2020,01,26,11,39,-22.70
2020,01,26,11,40,-22.70
2020,01,26,11,41,-22.70
2020,01,26,11,42,-22.70
2020,01,26,11,43,-22.70
2020,01,26,11,44,-22.70
2020,01,26,11,45,-22.70
2020,01,26,11,46,-22.60
2020,01,26,11,47,-22.60
2020,01,26,11,48,-22.70
2020,01,26,11,49,-22.70
2020,01,26,11,50,-22.60
2020,01,26,11,51,-22.70
2020,01,26,11,52,-22.70
2020,01,26,11,53,-22.70
2020,01,26,11,54,-22.70
2020,01,26,11,55,-22.70
2020,01,26,11,56,-22.70
2020,01,26,11,57,-22.70
2020,01,26,11,58,-22.70
2020,01,26,11,59,-22.70
2020,01,26,12,00,-22.70
2020,01,26,12,01,-22.70
2020,01,26,12,02,-22.70
2020,01,26,12,03,-22.70
2020,01,26,12,04,-22.70
2020,01,26,12,05,-22.70
2020,01,26,12,06,-22.70
2020,01,26,12,07,-22.70
2020,01,26,12,08,-22.70
2020,01,26,12,09,-22.70
2020,01,26,12,10,-22.70
2020,01,26,12,11,-22.70
2020,01,26,12,12,-22.70
2020,01,26,12,13,-22.70
2020,01,26,12,14,-22.60
2020,01,26,12,15,-22.60
2020,01,26,12,16,-22.60
2020,01,26,12,17,-22.60
2020,01,26,12,18,-22.60
2020,01,26,12,19,-22.60
2020,01,26,12,20,-22.60
2020,01,26,12,21,-22.60
2020,01,26,12,22,-22.60
2020,01,26,12,23,-22.60
2020,01,26,12,24,-22.60
2020,01,26,12,25,-22.60
2020,01,26,12,26,-22.60
2020,01,26,12,27,-22.60
2020,01,26,12,28,-22.60
2020,01,26,12,29,-22.60
2020,01,26,12,30,-22.60
2020,01,26,12,31,-22.60
2020,01,26,12,32,-22.60
2020,01,26,12,33,-22.60
2020,01,26,12,34,-22.60
2020,01,26,12,35,-22.60
2020,01,26,12,36,-22.60
2020,01,26,12,37,-22.60
2020,01,26,12,38,-22.60
2020,01,26,12,39,-22.60
2020,01,26,12,40,-22.60
2020,01,26,12,41,-22.60
2020,01,26,12,42,-22.60
2020,01,26,12,43,-22.50
2020,01,26,12,44,-22.50
2020,01,26,12,45,-22.40
2020,01,26,12,46,-22.40
2020,01,26,12,47,-22.40
2020,01,26,12,48,-22.40
2020,01,26,12,49,-22.40
2020,01,26,12,50,-22.40
2020,01,26,12,51,-22.40
2020,01,26,12,52,-22.40
2020,01,26,12,53,-22.40
2020,01,26,12,54,-22.40
2020,01,26,12,55,-22.40
2020,01,26,12,56,-22.40
2020,01,26,12,57,-22.40
2020,01,26,12,58,-22.40
2020,01,26,12,59,-22.40
2020,01,26,13,00,-22.40
2020,01,26,13,01,-22.40
2020,01,26,13,02,-22.40
2020,01,26,13,03,-22.40
2020,01,26,13,04,-22.40
2020,01,26,13,05,-22.40
2020,01,26,13,06,-22.30
2020,01,26,13,07,-22.30
2020,01,26,13,08,-22.30
2020,01,26,13,09,-22.30
2020,01,26,13,10,-22.30
2020,01,26,13,11,-22.30
2020,01,26,13,12,-22.30
2020,01,26,13,13,-22.30
2020,01,26,13,14,-22.30
2020,01,26,13,15,-22.30
2020,01,26,13,16,-22.30
2020,01,26,13,17,-22.30
2020,01,26,13,18,-22.30
2020,01,26,13,19,-22.30
2020,01,26,13,20,-22.20
2020,01,26,13,21,-22.20
2020,01,26,13,22,-22.20
2020,01,26,13,23,-22.20
2020,01,26,13,24,-22.20
2020,01,26,13,25,-22.20
2020,01,26,13,26,-22.20
2020,01,26,13,27,-22.20
2020,01,26,13,28,-22.20
2020,01,26,13,29,-22.20
2020,01,26,13,30,-22.20
2020,01,26,13,31,-22.20
2020,01,26,13,32,-22.10
2020,01,26,13,33,-22.20
2020,01,26,13,34,-22.20
2020,01,26,13,35,-22.20
2020,01,26,13,36,-22.20
2020,01,26,13,37,-22.20
2020,01,26,13,38,-22.20
2020,01,26,13,39,-22.20
2020,01,26,13,40,-22.20
2020,01,26,13,41,-22.20
2020,01,26,13,42,-22.20
2020,01,26,13,43,-22.20
2020,01,26,13,44,-22.20
2020,01,26,13,45,-22.20
2020,01,26,13,46,-22.20
2020,01,26,13,47,-22.20
2020,01,26,13,48,-22.20
2020,01,26,13,49,-22.20
2020,01,26,13,50,-22.20
2020,01,26,13,51,-22.20
2020,01,26,13,52,-22.20
2020,01,26,13,53,-22.20
2020,01,26,13,54,-22.20
2020,01,26,13,55,-22.20
2020,01,26,13,56,-22.20
2020,01,26,13,57,-22.20
2020,01,26,13,58,-22.20
2020,01,26,13,59,-22.20
2020,01,26,14,00,-22.20
2020,01,26,14,01,-22.20
2020,01,26,14,02,-22.20
2020,01,26,14,03,-22.20
2020,01,26,14,04,-22.20
2020,01,26,14,05,-22.20
2020,01,26,14,06,-22.20
2020,01,26,14,07,-22.20
2020,01,26,14,08,-22.20
2020,01,26,14,09,-22.30
2020,01,26,14,10,-22.30
2020,01,26,14,11,-22.30
2020,01,26,14,12,-22.20
2020,01,26,14,13,-22.20
2020,01,26,14,14,-22.20
2020,01,26,14,15,-22.20
2020,01,26,14,16,-22.20
2020,01,26,14,17,-22.20
2020,01,26,14,18,-22.20
2020,01,26,14,19,-22.20
2020,01,26,14,20,-22.20
2020,01,26,14,21,-22.20
2020,01,26,14,22,-22.20
2020,01,26,14,23,-22.20
2020,01,26,14,24,-22.20
2020,01,26,14,25,-22.20
2020,01,26,14,26,-22.20
2020,01,26,14,27,-22.20
2020,01,26,14,28,-22.20
2020,01,26,14,29,-22.20
2020,01,26,14,30,-22.20
2020,01,26,14,31,-22.20
2020,01,26,14,32,-22.10
2020,01,26,14,33,-22.10
2020,01,26,14,34,-22.10
2020,01,26,14,35,-22.10
2020,01,26,14,36,-22.10
2020,01,26,14,37,-22.10
2020,01,26,14,38,-22.10
2020,01,26,14,39,-22.10
2020,01,26,14,40,-22.10
2020,01,26,14,41,-22.10
2020,01,26,14,42,-22.10
2020,01,26,14,43,-22.10
2020,01,26,14,44,-22.10
2020,01,26,14,45,-22.10
2020,01,26,14,46,-22.10
2020,01,26,14,47,-22.10
2020,01,26,14,48,-22.10
2020,01,26,14,49,-22.20
2020,01,26,14,50,-22.20
2020,01,26,14,51,-22.20
2020,01,26,14,52,-22.20
2020,01,26,14,53,-22.10
2020,01,26,14,54,-22.10
2020,01,26,14,55,-22.10
2020,01,26,14,56,-22.10
2020,01,26,14,57,-22.20
2020,01,26,14,58,-22.20
2020,01,26,14,59,-22.20
2020,01,26,15,00,-22.20
2020,01,26,15,01,-22.20
2020,01,26,15,02,-22.10
2020,01,26,15,03,-22.10
2020,01,26,15,04,-22.10
2020,01,26,15,05,-22.10
2020,01,26,15,06,-22.10
2020,01,26,15,07,-22.10
2020,01,26,15,08,-22.10
2020,01,26,15,09,-22.10
2020,01,26,15,10,-22.10
2020,01,26,15,11,-22.10
2020,01,26,15,12,-22.10
2020,01,26,15,13,-22.10
2020,01,26,15,14,-22.10
2020,01,26,15,15,-22.10
2020,01,26,15,16,-22.10
2020,01,26,15,17,-22.10
2020,01,26,15,18,-22.20
2020,01,26,15,19,-22.20
2020,01,26,15,20,-22.20
2020,01,26,15,21,-22.20
2020,01,26,15,22,-22.20
2020,01,26,15,23,-22.20
2020,01,26,15,24,-22.20
2020,01,26,15,25,-22.20
2020,01,26,15,26,-22.20
2020,01,26,15,27,-22.20
2020,01,26,15,28,-22.20
2020,01,26,15,29,-22.20
2020,01,26,15,30,-22.20
2020,01,26,15,31,-22.20
2020,01,26,15,32,-22.20
2020,01,26,15,33,-22.20
2020,01,26,15,34,-22.20
2020,01,26,15,35,-22.20
2020,01,26,15,36,-22.20
2020,01,26,15,37,-22.20
2020,01,26,15,38,-22.20
2020,01,26,15,39,-22.20
2020,01,26,15,40,-22.20
2020,01,26,15,41,-22.20
2020,01,26,15,42,-22.20
2020,01,26,15,43,-22.20
2020,01,26,15,44,-22.20
2020,01,26,15,45,-22.20
2020,01,26,15,46,-22.20
2020,01,26,15,47,-22.20
2020,01,26,15,48,-22.30
2020,01,26,15,49,-22.30
2020,01,26,15,50,-22.30
2020,01,26,15,51,-22.20
2020,01,26,15,52,-22.20
2020,01,26,15,53,-22.20
2020,01,26,15,54,-22.30
2020,01,26,15,55,-22.30
2020,01,26,15,56,-22.30
2020,01,26,15,57,-22.30
2020,01,26,15,58,-22.30
2020,01,26,15,59,-22.30
2020,01,26,16,00,-22.30
2020,01,26,16,01,-22.30
2020,01,26,16,02,-22.30
2020,01,26,16,03,-22.30
2020,01,26,16,04,-22.30
2020,01,26,16,05,-22.30
2020,01,26,16,06,-22.30
2020,01,26,16,07,-22.30
2020,01,26,16,08,-22.30
2020,01,26,16,09,-22.30
2020,01,26,16,10,-22.30
2020,01,26,16,11,-22.30
2020,01,26,16,12,-22.30
2020,01,26,16,13,-22.30
2020,01,26,16,14,-22.30
2020,01,26,16,15,-22.30
2020,01,26,16,16,-22.30
2020,01,26,16,17,-22.30
2020,01,26,16,18,-22.30
2020,01,26,16,19,-22.30
2020,01,26,16,20,-22.40
2020,01,26,16,21,-22.30
2020,01,26,16,22,-22.40
2020,01,26,16,23,-22.40
2020,01,26,16,24,-22.30
2020,01,26,16,25,-22.30
2020,01,26,16,26,-22.30
2020,01,26,16,27,-22.30
2020,01,26,16,28,-22.30
2020,01,26,16,29,-22.30
2020,01,26,16,30,-22.30
2020,01,26,16,31,-22.30
2020,01,26,16,32,-22.30
2020,01,26,16,33,-22.40
2020,01,26,16,34,-22.30
2020,01,26,16,35,-22.30
2020,01,26,16,36,-22.30